[[{"header":{"parameterUnit":"m.s-1","parameterCategory":1,"la1":30.2991,"la2":30.254,"lo1":-89.0895,"lo2":-89.0444,"dy":0.0017,"dx":0.0017,"nx":28,"ny":28,"refTime":"2025-09-05T09:00:00:Z","depth":0,"parameterNumber":2,"parameterNumberName":"U-component_of_WINDS"},"data":[0,0,0,0,0,0,0,0,0,0,0,0,0,0,0,0,0,0,0,0,0,0,0,0,0,0,0,0,0,0,0,0,0,0,0,0,0,0,0,0,0,0,0,0,0,0,0,0,0,0,0,0,0,0,0,0,0,0,-0.8551,-0.8551,0,-0.8571,-0.8571,-0.8571,-0.8544,-0.8543,-0.8542,-0.8541,-0.8563,-0.8565,-0.8566,0,0,0,0,0,0,0,0,0,0,0,0,0,-0.8492,-0.8493,-0.8551,-0.8551,-0.8552,-0.8571,-0.8571,-0.8571,-0.8544,-0.8543,-0.8542,-0.854,-0.8563,-0.8565,-0.8567,0,0,0,0,0,0,0,0,0,0,0,0,0,-0.8516,-0.8494,-0.8551,-0.854,-0.8539,-0.8571,-0.8571,-0.8571,-0.8544,-0.8543,-0.8541,-0.854,-0.8562,-0.8565,-0.8567,-0.861,0,0,-0.8574,-0.8575,0,0,0,0,0,0,0,0,-0.8514,-0.8518,-0.8542,-0.8541,-0.854,-0.8553,-0.8559,-0.8585,-0.8545,-0.8542,-0.8541,-0.8539,-0.8561,-0.8564,-0.8571,-0.8612,-0.8612,-0.8574,-0.8575,-0.8576,-0.8577,0,0,0,0,0,0,0,-0.8513,-0.8517,-0.8559,-0.8542,-0.8541,-0.8535,-0.8537,-0.8563,-0.856,-0.8543,-0.8541,-0.8543,-0.8561,-0.8569,-0.8571,-0.8613,-0.8574,-0.8576,-0.8577,-0.8578,-0.8692,-0.8693,0,0,0,0,0,0,-0.8512,-0.8516,-0.8558,-0.856,-0.8523,-0.8537,-0.8539,-0.8551,-0.856,-0.856,-0.8544,-0.8542,-0.8565,-0.8568,-0.8572,-0.8625,-0.8576,-0.8578,-0.858,-0.869,-0.8692,-0.8694,0,0,0,0,0,0,-0.8511,-0.8516,-0.8558,-0.8537,-0.8542,-0.854,-0.8553,-0.8552,-0.856,-0.8561,-0.8561,-0.8553,-0.8564,-0.8569,-0.8601,-0.8625,-0.8579,-0.8582,-0.8688,-0.8691,-0.8693,-0.873,0,0,0,0,0,0,-0.8509,-0.8516,-0.8532,-0.8538,-0.8543,-0.8586,-0.8554,-0.8553,-0.8563,-0.856,-0.8569,-0.8569,-0.8564,-0.8598,-0.8603,-0.8627,-0.8583,-0.8686,-0.8689,-0.8692,-0.8727,-0.8733,-0.8739,0,0,0,0,0,-0.8507,-0.8542,-0.8533,-0.8538,-0.8563,-0.8587,-0.8591,-0.8583,-0.8565,-0.8582,-0.8583,-0.8569,-0.8621,-0.8602,-0.8607,-0.8632,-0.8685,-0.8689,-0.8692,-0.8724,-0.8732,-0.8739,0,0,0,0,0,0,-0.8539,-0.8542,-0.8532,-0.8569,-0.8578,-0.8583,-0.8603,-0.8592,-0.8607,-0.8603,-0.8594,-0.8596,-0.8631,-0.8635,-0.8613,-0.8676,-0.865,-0.8655,-0.8672,-0.868,-0.8686,-0.8685,-0.8585,0,0,0,0,0,-0.8551,-0.857,-0.8571,-0.8604,-0.8609,-0.8605,-0.8616,-0.8609,-0.8618,-0.8622,-0.8626,-0.8636,-0.8655,-0.8667,-0.8685,-0.8727,-0.8729,-0.8747,-0.8753,-0.8758,-0.8763,-0.8787,-0.8795,-0.8706,-0.8706,-0.8706,0,0,-0.8574,-0.8578,-0.8591,-0.861,-0.8616,-0.8637,-0.8609,-0.8632,-0.8648,-0.8626,-0.8657,-0.866,-0.8671,-0.8709,-0.8726,-0.8713,-0.8788,-0.8763,-0.8767,-0.8769,-0.8792,-0.88,-0.8808,-0.8709,-0.8708,-0.8708,0,0,-0.8629,-0.8633,-0.8661,-0.8668,-0.8677,-0.8675,-0.8681,-0.8688,-0.8689,-0.8719,-0.8704,-0.8723,-0.8755,-0.8764,-0.8773,-0.883,-0.8818,-0.8836,-0.887,-0.8893,-0.89,-0.8906,-0.8928,-0.8936,-0.8841,-0.8841,-0.8841,0,-0.8657,-0.8687,-0.8677,-0.8701,-0.8711,-0.8692,-0.8721,-0.8728,-0.8743,-0.8751,-0.8736,-0.8776,-0.8782,-0.8823,-0.8837,-0.8844,-0.8852,-0.8836,-0.89,-0.8906,-0.8911,-0.8932,-0.894,-0.8843,-0.8843,-0.8843,-0.8843,0,-0.8723,-0.8744,-0.8766,-0.878,-0.8792,-0.8819,-0.8813,-0.8827,-0.8819,-0.8819,-0.8851,-0.8857,-0.8876,-0.8885,-0.8878,-0.8925,-0.8917,-0.8901,-0.8875,-0.8922,-0.8942,-0.895,-0.8846,-0.8846,-0.8845,-0.8844,0,0,-0.8799,-0.8807,-0.8815,-0.8822,-0.8831,-0.8848,-0.8874,-0.8891,-0.8904,-0.8915,-0.8937,-0.8965,-0.8951,-0.8961,-0.8955,-0.8975,-0.9022,-0.8957,-0.8957,-0.897,-0.9076,-0.9088,-0.9098,-0.9013,-0.9015,-0.9016,-0.9075,0,-0.8854,-0.8898,-0.889,-0.8934,-0.8954,-0.8936,-0.8959,-0.8968,-0.8968,-0.8986,-0.8986,-0.9007,-0.8985,-0.8991,-0.901,-0.9012,-0.9043,-0.9008,-0.9036,-0.9037,-0.9035,-0.9108,-0.9121,-0.9177,-0.9083,-0.9084,-0.9085,0,-0.8925,-0.8938,-0.8984,-0.899,-0.8998,-0.9019,-0.9035,-0.9052,-0.9061,-0.906,-0.9071,-0.9061,-0.9089,-0.9061,-0.91,-0.9076,-0.9087,-0.9089,-0.9091,-0.9095,-0.9065,-0.9115,-0.9194,-0.9203,-0.9097,-0.9096,-0.9095,0,-0.8977,-0.9006,-0.9038,-0.9044,-0.9052,-0.9067,-0.9071,-0.9079,-0.9091,-0.9105,-0.9112,-0.913,-0.914,-0.9154,-0.9149,-0.913,-0.9189,-0.9161,-0.919,-0.919,-0.9204,-0.9204,-0.9288,-0.9209,-0.9209,-0.9209,-0.9209,0,-0.9041,-0.907,-0.9062,-0.9081,-0.9114,-0.9104,-0.9137,-0.9139,-0.9146,-0.9167,-0.9152,-0.9171,-0.9163,-0.9183,-0.9179,-0.9212,-0.9216,-0.9217,-0.9216,-0.9219,-0.922,-0.9227,-0.9224,-0.9211,-0.9211,-0.921,-0.921,0,-0.9106,-0.9101,-0.9134,-0.9139,-0.9141,-0.9165,-0.9169,-0.9188,-0.9187,-0.9213,-0.9218,-0.9217,-0.9239,-0.9235,-0.926,-0.9258,-0.9299,-0.9293,-0.9296,-0.9295,-0.9325,-0.9323,-0.9418,-0.9431,-0.9342,-0.9343,-0.9344,0,-0.9148,-0.9169,-0.9176,-0.9188,-0.9194,-0.9213,-0.9225,-0.9216,-0.9229,-0.9242,-0.926,-0.928,-0.9296,-0.9333,-0.9335,-0.9354,-0.9348,-0.9381,-0.9351,-0.9354,-0.9351,-0.935,-0.9353,-0.9387,-0.9388,-0.9389,-0.939,0,-0.9223,-0.9219,-0.9236,-0.9252,-0.9266,-0.9278,-0.9289,-0.93,-0.9293,-0.9308,-0.933,-0.9343,-0.9368,-0.9389,-0.9407,-0.9412,-0.9401,-0.9398,-0.9406,-0.9411,-0.9412,-0.9413,-0.9314,-0.9397,-0.9396,-0.9395,-0.9395,-0.9395,-0.9278,-0.9297,-0.9305,-0.9324,-0.9332,-0.9342,-0.9361,-0.9361,-0.9379,-0.9399,-0.9392,-0.9418,-0.9428,-0.945,-0.9458,-0.9478,-0.9466,-0.9478,-0.9481,-0.9484,-0.9488,-0.9408,-0.9481,-0.9481,-0.9481,-0.9481,-0.948,0,-0.9354,-0.9358,-0.9376,-0.9391,-0.9407,-0.9393,-0.9404,-0.9419,-0.9441,-0.9451,-0.9467,-0.9493,-0.9513,-0.9516,-0.9536,-0.9552,-0.9547,-0.9558,-0.9557,-0.9559,-0.9497,-0.9489,-0.9561,-0.9561,-0.9561,-0.9561,-0.9561,-0.9561,-0.9395,-0.9427,-0.9425,-0.946,-0.9464,-0.9488,-0.9496,-0.9507,-0.9514,-0.9544,-0.956,-0.9562,-0.9569,-0.959,-0.9608,-0.9609,-0.9617,-0.963,-0.9629,-0.9571,-0.9563,-0.9556,-0.9548,-0.9632,-0.9632,-0.9689,-0.969,-0.969]},{"header":{"parameterUnit":"m.s-1","parameterCategory":1,"la1":30.2991,"la2":30.254,"lo1":-89.0895,"lo2":-89.0444,"dy":0.0017,"dx":0.0017,"nx":28,"ny":28,"refTime":"2025-09-05T09:00:00:Z","depth":0,"parameterNumber":3,"parameterNumberName":"V-component_of_WINDS"},"data":[0,0,0,0,0,0,0,0,0,0,0,0,0,0,0,0,0,0,0,0,0,0,0,0,0,0,0,0,0,0,0,0,0,0,0,0,0,0,0,0,0,0,0,0,0,0,0,0,0,0,0,0,0,0,0,0,0,0,1.6905,1.6904,0,1.6871,1.6871,1.6871,1.6832,1.6831,1.6831,1.683,1.6795,1.6794,1.6794,0,0,0,0,0,0,0,0,0,0,0,0,0,1.6933,1.6932,1.6905,1.6904,1.6904,1.6871,1.6871,1.687,1.6832,1.6831,1.683,1.683,1.6795,1.6794,1.6794,0,0,0,0,0,0,0,0,0,0,0,0,0,1.6912,1.6932,1.6905,1.6881,1.6878,1.6871,1.6871,1.687,1.6832,1.6831,1.683,1.6829,1.6795,1.6794,1.6794,1.6808,0,0,1.6792,1.6792,0,0,0,0,0,0,0,0,1.6913,1.6911,1.6885,1.6882,1.688,1.6855,1.6868,1.6849,1.6832,1.685,1.683,1.6829,1.6815,1.6813,1.6809,1.6806,1.6805,1.6792,1.6792,1.6791,1.6791,0,0,0,0,0,0,0,1.6915,1.6912,1.6891,1.6884,1.6881,1.6871,1.6867,1.6864,1.6838,1.6848,1.6845,1.6842,1.6814,1.6809,1.6808,1.6804,1.6792,1.6792,1.6791,1.6791,1.6808,1.6809,0,0,0,0,0,0,1.692,1.6914,1.6893,1.689,1.6895,1.6871,1.6867,1.6864,1.6838,1.6833,1.6842,1.684,1.6811,1.6808,1.6806,1.6819,1.6791,1.6791,1.6791,1.6807,1.6808,1.6809,0,0,0,0,0,0,1.6921,1.6919,1.6894,1.6901,1.6897,1.6872,1.6868,1.6863,1.6859,1.6834,1.6828,1.6843,1.681,1.6807,1.6807,1.6817,1.6791,1.679,1.6806,1.6808,1.6809,1.6845,0,0,0,0,0,0,1.6922,1.6919,1.6925,1.6902,1.6897,1.6896,1.6869,1.6863,1.6858,1.6855,1.6833,1.6828,1.6809,1.6808,1.6807,1.6816,1.679,1.6805,1.6807,1.6808,1.6843,1.6847,1.6851,0,0,0,0,0,1.6923,1.6937,1.6925,1.6923,1.6904,1.6897,1.6894,1.6872,1.6859,1.6864,1.6847,1.6829,1.6816,1.6809,1.6806,1.6815,1.6805,1.6807,1.6808,1.6841,1.6846,1.6851,0,0,0,0,0,0,1.6962,1.6933,1.692,1.6927,1.6915,1.689,1.6896,1.6879,1.687,1.6867,1.684,1.6835,1.6838,1.6827,1.6819,1.6826,1.6808,1.6809,1.6833,1.6838,1.6842,1.6844,1.6789,0,0,0,0,0,1.6971,1.6969,1.6944,1.6952,1.6946,1.6922,1.6919,1.6903,1.6889,1.6883,1.6866,1.6853,1.6846,1.6842,1.6834,1.6841,1.6835,1.6846,1.685,1.6854,1.6855,1.6856,1.686,1.6815,1.6815,1.6815,0,0,1.699,1.6975,1.6975,1.6959,1.6948,1.6944,1.6918,1.6917,1.6913,1.6883,1.6881,1.6869,1.6851,1.6855,1.6855,1.6845,1.6866,1.6856,1.6859,1.6858,1.6858,1.6862,1.6866,1.6816,1.6816,1.6816,0,0,1.7023,1.7012,1.7017,1.7005,1.6988,1.6972,1.6973,1.6951,1.6941,1.6939,1.6915,1.6911,1.69,1.6888,1.688,1.6907,1.6888,1.6905,1.6926,1.6927,1.6931,1.6934,1.6941,1.6944,1.6907,1.6907,1.6907,0,1.7049,1.7044,1.7021,1.702,1.7013,1.6985,1.6989,1.6979,1.696,1.6955,1.6944,1.6928,1.6915,1.6914,1.692,1.6916,1.6914,1.6907,1.6932,1.6935,1.6937,1.6944,1.6947,1.6909,1.6908,1.6908,1.6908,0,1.7076,1.7072,1.7078,1.706,1.7054,1.7055,1.7031,1.7028,1.7012,1.6996,1.6993,1.6976,1.6963,1.6962,1.6947,1.6958,1.6952,1.6938,1.6918,1.6944,1.695,1.6952,1.6911,1.6911,1.691,1.691,0,0,1.7132,1.7101,1.7103,1.7093,1.7072,1.7068,1.7067,1.7055,1.7051,1.7039,1.7036,1.7026,1.7012,1.7003,1.6986,1.6988,1.7007,1.6972,1.6971,1.6977,1.7015,1.7025,1.7029,1.6995,1.6995,1.6996,1.7016,0,1.716,1.7157,1.7136,1.7139,1.7134,1.7107,1.7106,1.7092,1.7077,1.707,1.7053,1.7046,1.7028,1.7023,1.7023,1.7005,1.7014,1.7003,1.6991,1.699,1.6994,1.7032,1.7043,1.7063,1.7018,1.7018,1.7019,0,1.7192,1.7181,1.7184,1.716,1.7157,1.7157,1.7142,1.7137,1.7119,1.7108,1.7098,1.7079,1.7074,1.7057,1.705,1.7043,1.7037,1.7027,1.7027,1.7024,1.7005,1.7028,1.7069,1.7072,1.7022,1.7022,1.7022,0,1.723,1.7216,1.7215,1.7208,1.7181,1.7181,1.717,1.7152,1.7145,1.7132,1.7127,1.7114,1.7106,1.7096,1.7073,1.7063,1.7068,1.7049,1.7057,1.7057,1.7058,1.7058,1.7097,1.7057,1.7057,1.7057,1.7057,0,1.7263,1.7265,1.7232,1.7231,1.7232,1.7207,1.7209,1.7194,1.7178,1.7173,1.7149,1.7145,1.7115,1.7107,1.7089,1.7085,1.7082,1.7071,1.7066,1.7073,1.7074,1.7067,1.7065,1.7057,1.7057,1.7057,1.7057,0,1.7305,1.7284,1.7281,1.7255,1.7249,1.725,1.7228,1.7225,1.7208,1.7202,1.7199,1.7173,1.7162,1.7138,1.7121,1.7108,1.7107,1.71,1.7113,1.711,1.7118,1.7117,1.7153,1.7155,1.7116,1.7116,1.7116,0,1.7327,1.7328,1.7302,1.7297,1.7286,1.7279,1.7271,1.7246,1.7239,1.7218,1.7218,1.7205,1.7193,1.7176,1.7155,1.7141,1.7131,1.7144,1.7129,1.7134,1.7129,1.7128,1.7127,1.7148,1.7148,1.7149,1.7149,0,1.7366,1.7355,1.7346,1.7332,1.7324,1.7312,1.7298,1.7295,1.7266,1.7259,1.7248,1.7239,1.722,1.7207,1.7189,1.7176,1.7157,1.7154,1.7155,1.7161,1.7168,1.7162,1.7121,1.7153,1.7153,1.7153,1.7152,1.7152,1.7397,1.7396,1.7377,1.7367,1.7354,1.7342,1.7337,1.732,1.731,1.7293,1.7279,1.7268,1.7248,1.7223,1.721,1.72,1.7191,1.7193,1.7193,1.7193,1.7195,1.7171,1.7197,1.7197,1.7197,1.7197,1.7197,0,1.7434,1.742,1.7411,1.7393,1.7384,1.7368,1.7351,1.7345,1.7336,1.732,1.7308,1.7294,1.728,1.7257,1.7241,1.7237,1.7228,1.7234,1.7233,1.723,1.7205,1.7205,1.7241,1.7241,1.7241,1.7241,1.7241,1.7241,1.7452,1.7448,1.7434,1.7423,1.7409,1.7399,1.7391,1.7378,1.7365,1.735,1.7339,1.7324,1.7304,1.7286,1.7272,1.7266,1.726,1.7268,1.7259,1.7236,1.7232,1.7228,1.7228,1.7268,1.7268,1.7284,1.7284,1.7284]}]]